Showing default

HOTSAT-1, 56954

Orbit data source: Space-Track

HOTSAT-1, 56954 is a payload satellite owned by Satellite Vu (UK) in SSO that was launched on Mon, 12 Jun 2023 UTC via an FALCON 9 launch vehicle from the Air Force Western Test Range (AFWTR). Payload-class satellites include a variety of spacecraft equipped with specific instruments for various scientific and technological missions. These include communications satellites like Starlink; space stations such as the ISS; scientific satellites like the Hubble; Earth observation satellites from companies like Planet Labs, Umbra, and HawkEye 360; GPS; miniature CubeSats for education and research; and military/defense satellites.

Loading next visibility...
Identifier
56954, 2023-084Y
Orbit
SSO
Country
Flag of UKUK
Related business
Manufacturer
SSTL
Mission
Non-operational Commercial Imaging
Bus & Motor
DARKCARB, H2O AOCS
Mass
130 kg wet, 130 kg dry
Launch date (UTC)
2023-06-12 (3 years ago)
Launch vehicle
FALCON 9
Launch site
Air Force Western Test Range (AFWTR)
Object type
Payload
Rocket body
Debris
Shape & HBR
Box + Cone + 1 Pan, 0.5 m
Radar Cross Section
0.625 m², Medium (>0.1 m² and < 1m²)

Expand to show TLE details & history
Last TLE update: 11 hours ago

TLE from 11 hours ago
0 HOTSAT-1
1 56954U 23084Y   26074.24242894  .00006090  00000-0  26909-3 0  9994
2 56954  97.6060 207.3718 0000209 120.7772 239.3484 15.22099702152800
Epoch: 2026-03-15T05:49Z
TLE epoch observation values (Epoch: 2026-03-15T05:49:05.860Z)
Latitude
-0.00005°
Longitude
-52.75468°
Altitude
502.669 km
Speed
7.613 km/s
True Right ascension
13h 49m 29s
True Declination
0° 00' 00"
Sunlit
Object was in full shadow at epoch
Visualization orbit readout
Latitude
Unknown
Longitude
Unknown
Altitude
Unknown
Speed
Unknown
Apparent Right ascension
Unknown
Apparent Declination
Unknown
Sunlit
N/A
Visualization observer readout
Local Sidereal Time
21:45:42
Azimuth
Unknown
Elevation
Unknown
Doppler factor
Unknown
Orbital elements
Apogee altitude
496.624 km
Perigee altitude
496.336 km
Semi-major axis
6,874.617 km
Eccentricity
0.00002
Inclination
97.606°
RAAN
207.3718°
Arg. of periapsis
120.7772°
True anomaly
239.34634°
Mean anomaly
239.3484°
Eccentric anomaly
239.34737°
Mean motion
3.80777 °/min
Orbital period
94.54 mins
BSTAR
0.00026909
Loading maneuver chart data...
Computing Atmospheric mass density...

Documentation

Showing up to 5 results
|